Home   Weather   Shantou   Past weeks

Flag for China Past Weather in Shantou, Guangdong, China — Yesterday and Last 2 Weeks

Now
86 °F

Partly sunny.


Feels Like: 87 °F
Forecast: 76 / 92 °F
Wind: 6 mph from South

Location: Shantou Airport

Current Time: Aug 30, 2016 at 5:30:14 PM

Latest Report: Aug 30, 2016 at 5:00 PM


Visibility: N/A

Pressure: 29.71 "Hg

Humidity: 46%

Dew Point: 63 °F

Location of ShantouLocation

Past Weather in Shantou — Graph

°F

Shantou Temperature Yesterday

Maximum temperature yesterday: 82 °F (at 2:00 PM)
Minimum temperature yesterday: 73 °F (at 4:00 AM)
Average temperature yesterday: 77 °F

High & Low Weather Summary for the Past Weeks

 TemperatureHumidityPressure
High97 °F (Aug 25, 4:00 PM)100% (Aug 15, 6:00 PM)29.80 "Hg (Aug 15, 6:00 PM)
Low73 °F (Aug 29, 4:00 AM)39% (Aug 25, 5:00 PM)29.45 "Hg (Aug 15, 4:00 PM)
Average83 °F85%29.64 "Hg
* Reported Aug 15 4:00 PM — Aug 30 4:00 PM, Shantou, Weather by CustomWeather, © 2016

Note: Actual official high and low records may vary slightly from our data, if they occured in-between our weather recording intervals... More about our weather records

Advertising

Shantou Weather History for the Previous 24 Hours

Scroll right to see more
 ConditionsComfort  
Time TempWeatherWind HumidityBarometerVisibility
4:00 PM
Tue, Aug 30
86 °FPartly sunny.8 mph55%29.68 "HgN/A
3:00 PM88 °FScattered clouds.6 mph55%29.68 "HgN/A
2:00 PM90 °FSunny.3 mph46%29.71 "Hg10 mi
1:00 PM90 °FPassing clouds.6 mph46%29.74 "HgN/A
12:00 PM88 °FPassing clouds.3 mph49%29.77 "HgN/A
11:00 AM86 °FSunny.3 mph55%29.77 "Hg10 mi
10:00 AM84 °FSunny.1 mph66%29.80 "Hg10 mi
9:00 AM82 °FScattered clouds.No wind74%29.80 "Hg5 mi
8:00 AM79 °FFog.1 mph89%29.80 "Hg3 mi
7:00 AM77 °FFog.No wind94%29.77 "Hg3 mi
6:00 AM77 °FFog.No wind94%29.77 "Hg3 mi
5:00 AM77 °FPassing clouds.No wind94%29.77 "Hg4 mi
4:00 AM77 °FPassing clouds.No wind89%29.74 "Hg5 mi
3:00 AM75 °FPassing clouds.1 mph94%29.74 "HgN/A
2:00 AM77 °FClear.No wind89%29.77 "Hg10 mi
1:00 AM77 °FPassing clouds.1 mph89%29.77 "Hg5 mi
12:00 AM79 °FPassing clouds.1 mph84%29.80 "HgN/A
11:00 PM
Mon, Aug 29
77 °FPassing clouds.3 mph94%29.80 "HgN/A
10:00 PM79 °FPassing clouds.1 mph79%29.80 "HgN/A
9:00 PM77 °FPassing clouds.1 mph94%29.80 "HgN/A
8:00 PM77 °FPassing clouds.1 mph89%29.77 "HgN/A
7:00 PM79 °FPassing clouds.No wind84%29.77 "HgN/A
6:00 PM79 °FScattered clouds.No wind79%29.74 "HgN/A
5:00 PM82 °FPartly sunny.3 mph70%29.74 "HgN/A
Weather by CustomWeather, © 2016

See weather overviewHow to use our weather pages